CAPE
8 0 12 125 135 320 298 396 256 479 204 116 27 2 146 260 315 553 234 19 249 143 941 1402 2220 2259 2217 2429 2531 2332 2081 2109 2004 1936 2102 2225 2334 2078 1662 1832 2089 1605 1496 1815 1131 1126 1609 1619 1655
2 2 43 325 475 393 562 238 497 358 298 87 24 35 128 250 79 118 71 264 110 137 747 804 2012 2226 2289 2399 2422 2473 2454 2345 2316 2285 2259 2211 2142 2035 1780 1496 1478 1843 1601 1532 1648 1539 1381 1574 1731
1 8 220 95 201 310 473 465 471 314 56 97 215 226 369 298 45 108 130 145 79 184 624 1430 1955 2460 2132 2393 2313 2346 2331 2280 2303 2278 1978 2069 2121 1741 1572 1514 1575 1408 1776 1637 1370 1356 1425 1180 1616
6 120 190 384 90 128 140 568 419 242 87 167 306 398 144 76 87 131 24 45 67 225 542 1799 1846 1856 2056 2234 2315 2283 2275 2059 1985 1957 1829 1959 1962 1812 1681 1656 1811 1647 1415 1558 1496 1508 1191 1131 1402
188 607 468 591 166 103 180 303 458 420 20 109 352 350 57 31 36 77 13 23 103 190 609 1421 2200 2035 1925 2083 2120 2134 1949 2000 2135 2116 2076 1910 1917 1930 2029 1926 1942 1732 1486 1398 1388 1340 1272 1217 1194
496 371 396 254 45 215 43 56 361 298 197 172 297 188 81 40 77 115 23 34 63 253 529 845 1758 1916 2155 1999 2073 2071 1840 2007 2080 2032 1935 2078 2146 2109 1980 1759 1546 1280 1271 1194 1309 1294 1282 1339 1640
556 454 238 247 68 248 340 521 594 680 400 209 346 411 79 97 103 95 52 66 69 313 415 638 1394 1767 1752 1800 2057 2113 1841 1905 1989 2257 2193 2266 2181 2002 1794 1635 1294 1237 1122 1010 1251 1271 1330 1533 1824
588 245 236 366 100 544 304 24 77 720 395 299 204 425 169 116 75 97 86 105 79 289 360 704 734 1545 1078 1370 1984 2135 1998 1828 1753 2013 2315 2221 1996 1500 1013 1780 1497 1146 1095 1050 1094 1260 1465 1483 1914
232 52 212 299 174 344 192 180 429 498 73 95 122 157 206 131 97 59 125 137 119 333 382 870 526 740 1085 1228 1743 1963 2051 2196 2285 2261 2290 2050 1062 884 1228 1681 1376 1285 1077 1032 1095 1205 1553 1706 1701
257 248 188 63 98 27 159 471 865 754 223 74 51 58 132 126 84 62 103 191 82 199 246 689 512 737 887 917 1397 1470 1641 1488 1515 1449 1637 1120 1279 1375 1116 1363 1487 1429 1401 1479 1107 1331 1433 1734 1153
442 208 178 49 25 128 293 487 924 828 532 252 168 98 150 195 248 48 41 158 43 111 139 346 551 864 737 1195 1288 1410 1298 1497 1731 1800 1552 1288 1138 941 1170 1389 1529 1290 1392 1100 1237 1363 970 760 800
124 181 357 81 141 98 119 422 724 746 824 626 242 139 204 155 97 18 21 38 24 67 191 222 559 1005 824 1176 1052 1088 1013 1097 1060 1092 1612 1644 1219 1193 1122 1155 1366 1283 1210 1440 1282 1048 1227 1133 1196
27 184 257 214 134 264 261 333 325 605 659 380 270 144 137 123 63 18 2 4 7 31 240 231 519 1071 1132 1271 984 894 934 829 716 1071 1237 992 962 1271 1207 1370 1287 1231 1194 1201 1251 1265 1286 1528 1057
0 10 518 227 179 230 331 265 153 575 549 466 310 185 112 87 52 12 3 3 85 10 189 333 499 855 1139 1226 1338 1236 1159 1159 958 678 776 1428 1034 1482 1500 1353 1332 1296 962 932 997 1230 630 363 459
0 2 76 74 50 28 157 165 253 680 553 575 435 255 76 94 37 8 14 3 83 96 155 432 543 580 1048 1213 1459 1237 1121 991 1063 1013 1056 1029 1337 2043 1642 1651 1752 1381 1672 1554 1329 988 649 137 250
0 0 80 180 58 36 102 224 572 573 676 649 486 263 105 104 20 14 34 0 44 45 164 444 277 290 749 953 1203 827 847 851 839 829 967 1103 1551 1854 1621 1627 1288 1536 1097 548 576 305 139 151 95
0 0 0 116 132 101 204 348 819 493 624 597 514 299 167 135 39 24 32 0 42 131 274 501 367 269 477 824 852 830 938 1136 1262 1275 1428 1921 1630 1619 1232 1173 1238 1866 789 520 267 115 89 117 72
0 0 0 11 308 331 313 366 762 475 524 620 540 339 204 137 62 24 24 0 4 157 379 502 413 392 526 523 738 682 920 1159 1220 1237 1266 1914 1752 1684 1267 1390 1221 1247 755 614 345 380 482 136 93
0 0 0 64 200 315 355 362 840 653 582 620 536 398 243 164 96 44 43 70 59 231 366 566 514 603 595 396 490 718 761 903 1126 1129 1484 1853 1729 1847 1544 1265 1354 945 918 1179 1453 1082 1179 221 265
0 0 0 7 79 210 312 361 441 932 771 619 510 410 273 198 103 73 140 116 123 391 492 617 718 773 803 234 485 508 704 809 1022 1345 1773 1988 1880 2106 1952 1734 1495 947 701 1201 1265 1155 436 273 250
0 0 0 0 0 89 186 298 291 766 942 863 488 357 256 228 148 62 156 138 130 371 611 744 976 1000 872 606 298 669 984 1252 1544 1664 1608 1971 2003 2082 2257 2187 1657 1473 1318 798 1054 1555 830 285 396
0 0 0 0 0 21 125 228 212 347 1028 1008 955 519 291 160 190 112 101 214 114 283 746 888 1183 1233 1002 920 773 1818 1114 886 742 1175 1017 1442 2094 2034 2194 2383 2129 1665 1131 1415 1077 1543 1023 931 177
0 0 0 0 0 4 5 126 117 208 581 992 1020 900 639 305 138 147 117 317 253 197 370 902 1421 1868 1656 1598 1410 855 1469 438 566 802 1534 2013 2439 2205 1990 2446 2382 2220 1235 1428 1627 1639 1643 744 348
0 0 0 0 0 2 0 21 63 131 187 529 874 844 844 755 416 202 166 268 386 380 360 655 1604 2081 1803 1418 921 1853 1994 1421 672 1299 1208 1230 1286 1944 2255 2205 2503 2384 1637 1652 1668 1765 1867 1616 930
0 0 0 0 0 0 0 0 6 54 105 145 463 793 844 905 849 578 309 407 444 461 444 539 1531 1954 1752 1302 1121 1331 1664 1969 1649 1427 1150 1545 789 962 1675 2424 2601 2238 2602 2222 2663 2200 2207 2387 1312
0 0 0 0 0 0 0 0 0 1 0 39 162 532 753 890 1011 916 749 558 687 672 604 625 1390 1898 1823 1483 1984 2288 2142 899 1091 1411 1015 879 701 730 1065 2180 2259 2417 2288 2268 2440 2225 1985 2255 1880
1 0 0 0 0 0 0 0 0 0 0 0 1 88 482 716 990 1087 1003 873 743 862 1382 1354 1877 1724 1807 1344 2274 2467 2399 2155 1349 2331 1429 1052 1678 671 887 1388 2090 2052 2212 2399 2406 2047 2478 2289 2424
0 0 5 0 0 0 0 0 0 0 0 0 2 9 111 483 822 930 1158 1073 977 827 907 1002 1103 1717 1777 1378 1584 1587 1631 1946 2137 1705 2217 1819 1186 1396 975 1274 1554 1533 1876 2297 2596 2059 2320 2647 2268
0 1 33 15 1 0 0 0 0 0 0 0 0 0 27 293 782 874 1084 1166 1118 974 901 1047 1066 1286 1379 1713 1855 1815 1557 1543 1598 1609 1686 1860 1745 1598 1840 1443 1324 1332 2032 2236 2527 2323 1999 2719 2805
1 50 1 63 23 0 0 3 0 0 0 0 0 0 10 71 447 837 953 1023 1172 1198 1051 1037 1057 1110 1217 1806 2303 2039 1999 2136 1537 1806 1743 1891 2036 1852 2000 1879 1676 1481 1745 2244 2561 2438 1748 2229 2552
CIN
-118 0 0 -1 0 0 0 0 0 0 -11 -6 -24 -1 -3 -1 -1 -3 -8 -51 -2 -19 0 0 0 0 0 -1 -1 0 0 0 0 0 0 0 0 0 0 0 -1 0 0 0 0 0 0 0 0
-75 -39 -26 -2 0 0 0 -8 0 0 -1 -6 -45 -6 0 -3 -44 -9 -18 0 -28 -21 0 0 -1 0 0 0 0 0 0 0 0 0 0 0 0 0 0 0 -1 0 0 0 0 0 0 0 0
0 -33 -7 -3 -1 0 0 -1 0 0 -24 -18 -21 -2 -2 -3 -43 -5 -11 -8 -39 -33 0 0 0 0 0 0 0 0 0 0 0 0 0 0 0 -1 0 0 0 -2 0 0 0 0 -1 -3 0
0 -1 -3 0 -3 -7 -10 0 0 -5 -6 -9 -57 -1 -34 -33 -17 -4 -88 -63 -51 -13 0 0 0 0 0 0 0 0 0 0 0 0 0 0 0 0 0 0 0 0 0 0 0 -1 -1 0 0
-5 0 0 0 -3 -13 -4 -3 0 0 -59 -37 -5 -16 -34 -19 -43 -33 -39 -21 -39 -24 0 0 0 0 0 0 0 0 0 0 0 0 0 0 0 0 0 0 0 0 0 -1 -2 -4 -3 -1 -1
0 -1 0 0 -12 -1 -36 -38 -15 -12 -31 -45 -37 -39 -5 -44 -51 -25 -78 -83 -71 -11 0 0 0 0 0 0 0 0 0 0 0 -1 0 0 0 0 0 0 0 0 0 -8 -4 -9 -7 -4 -3
0 0 0 0 -24 -1 -1 -1 -3 0 -22 -68 -12 -1 -32 -60 -47 -38 -80 -79 -87 -1 0 0 0 0 0 0 0 0 0 0 0 0 0 -1 0 0 0 0 -1 0 -2 -11 -7 -10 -9 -5 -4
0 0 0 0 -26 0 -47 -87 -79 0 -5 -38 -106 -9 -42 -62 -90 -58 -61 -60 -85 -1 0 0 0 0 0 0 0 0 0 0 0 0 0 0 -1 -3 -11 -8 -3 0 -5 -9 -11 -9 -9 -10 -7
-2 -6 -1 0 -7 -5 -27 -40 -18 -24 -77 -78 -49 -30 -63 -77 -77 -150 -67 -52 -65 0 0 0 0 0 0 0 0 0 0 0 -1 -2 -3 -15 0 0 -1 -5 -3 -3 -6 -11 -13 -12 -11 -11 -8
-2 -5 -1 -25 -28 -51 -39 -1 0 -6 -39 -50 -33 -96 -106 -117 -122 -165 -94 -44 -94 -8 0 0 0 0 0 0 0 0 0 0 0 0 0 0 0 0 -1 -3 -5 -10 -11 -12 -22 -18 -23 -28 0
-1 -9 0 -35 -61 -21 -3 0 0 0 -1 -8 -39 -81 -112 -74 -39 -140 -114 -41 -132 -26 0 0 0 0 0 0 0 0 0 0 0 0 0 0 0 -1 0 -1 -1 -1 -12 -1 -8 -7 -1 0 0
-7 -11 0 -14 -14 -18 -25 -4 0 0 0 -1 -50 -95 -88 -76 -101 -96 -133 -89 -109 -53 -2 -1 0 0 0 0 0 0 0 0 0 0 0 0 0 0 0 0 0 0 0 0 0 0 0 0 0
-31 0 -6 -20 -24 0 -4 -2 -1 0 -10 -27 -66 -95 -65 -57 -61 -57 0 0 0 -34 -3 -2 -1 0 0 0 0 0 0 0 0 0 0 0 0 0 0 0 0 0 0 0 0 0 0 0 0
0 0 0 -27 -32 -22 -3 -2 -20 -3 -36 -43 -64 -72 -73 -68 -60 -42 0 0 -43 -11 -10 -3 -4 0 0 0 0 0 0 0 0 0 0 -1 0 0 0 -2 0 0 0 0 0 0 -1 0 -1
0 -4 -8 -17 -60 -67 -24 -10 -15 -19 -52 -54 -47 -46 -64 -88 -71 -71 -43 -9 -23 -24 -17 -5 -7 -7 0 0 0 0 0 0 0 0 -13 -11 -4 0 0 0 -1 0 0 0 -2 -3 -2 -9 -3
0 0 -9 -6 -29 -30 -19 -1 -8 -44 -36 -45 -46 -50 -63 -90 -73 -89 -62 0 -17 -24 -25 -9 -12 -18 -3 0 0 0 0 0 0 0 0 -9 -2 0 -1 -1 0 0 0 0 0 0 -7 -9 -25
0 0 0 -6 -4 -33 -17 0 -20 -38 -26 -42 -48 -68 -77 -72 -100 -120 -65 0 -31 -18 -13 -6 -13 -20 -11 -3 0 0 0 0 0 0 0 0 -3 -1 0 0 -1 0 0 0 -1 0 -1 -5 0
0 0 0 -35 0 0 0 0 -27 -56 -33 -43 -48 -64 -76 -98 -131 -113 -58 0 -3 -18 -7 -4 -10 -12 -19 -13 -9 -1 0 0 0 0 0 -1 0 -1 0 0 0 0 0 0 0 0 -1 -2 -1
0 0 0 -14 0 0 0 0 -13 -50 -42 -52 -67 -88 -86 -95 -104 -95 -73 -54 -57 -10 -6 -5 -5 -7 -20 -30 -18 -3 0 0 0 0 -2 0 0 -1 -1 0 0 0 0 0 0 0 -10 0 0
0 0 0 0 -5 0 0 0 0 -27 -35 -49 -79 -88 -87 -73 -99 -104 -69 -51 -34 -8 -7 -6 -5 -5 -16 -49 -15 -3 0 0 0 0 -2 -1 -2 -2 0 -1 0 0 -1 0 -1 -3 0 0 -2
0 0 0 0 0 -4 0 -1 -4 -4 -30 -29 -62 -67 -69 -85 -103 -151 -90 -82 -63 -20 -8 -7 -8 -4 -13 -12 -31 -10 0 -1 0 0 0 -1 -3 -2 0 -1 -1 0 0 -2 -1 0 -1 -1 0
0 0 0 0 0 -1 -3 0 -1 -1 -20 -25 -28 -61 -72 -87 -99 -121 -127 -88 -107 -52 -6 -4 -5 -6 -14 -14 -3 0 0 0 0 0 0 0 -4 -1 0 -1 0 0 0 -2 -2 0 0 -4 -5
0 0 0 0 0 -7 0 0 0 0 -1 -14 -29 -36 -58 -93 -103 -117 -141 -91 -78 -72 -37 -9 -1 0 -1 -4 -1 -16 0 -1 0 0 0 -1 -2 -2 0 0 0 0 -6 -1 0 0 -2 -1 -1
0 0 0 0 0 -1 0 0 0 -2 -28 -6 -23 -33 -43 -59 -87 -111 -115 -86 -66 -46 -44 -23 -1 -1 -1 -7 -38 -1 0 0 0 0 0 0 0 0 0 0 0 0 0 -1 0 0 0 0 -2
0 0 0 0 0 0 0 0 0 -1 -1 -43 -3 -28 -39 -60 -83 -93 -119 -110 -99 -75 -70 -46 -1 0 -3 -7 -21 -16 -2 0 0 -1 -1 0 0 0 0 0 -1 0 -1 0 0 0 0 0 -1
0 0 0 0 0 0 0 0 0 0 -1 -7 -10 -4 -24 -41 -53 -92 -125 -134 -127 -117 -103 -87 -23 -6 -1 -7 -1 -1 -3 -16 -5 -2 0 0 0 0 0 0 0 -1 0 0 0 0 0 0 0
0 0 0 0 0 0 0 0 0 0 0 0 -3 -24 -24 -37 -57 -85 -116 -143 -159 -143 -90 -85 -23 -38 -12 -18 -1 -1 -1 -3 -2 0 -7 -1 -1 -2 -2 -1 0 0 0 0 0 0 0 0 0
0 0 0 0 0 0 0 0 0 0 0 0 -5 -35 -27 -28 -49 -64 -109 -143 -157 -156 -145 -125 -119 -71 -37 -31 -14 -10 -15 -16 -6 -5 -1 -4 -3 -15 -5 -19 -5 -3 0 0 0 0 0 0 0
0 0 0 0 0 0 0 0 0 0 0 0 0 0 -23 -28 -37 -57 -93 -123 -156 -145 -146 -152 -140 -112 -88 -32 -13 -6 -13 -19 -24 -14 -20 -20 -19 -14 -28 -27 -24 -13 0 0 0 0 0 0 0
-1 -1 0 0 0 0 0 0 0 0 0 0 0 0 -34 -23 -24 -48 -64 -93 -123 -174 -163 -148 -169 -147 -151 -66 -11 -24 -13 -9 -17 -20 -27 -30 -27 -29 -31 -24 -23 -21 -1 0 0 0 0 0 0
Wind_Speed
nan nan nan 3 7 4 8 13 16 13 10 5 nan nan 5 21 15 7 15 nan 14 11 9 10 6 5 3 3 5 6 6 7 7 7 6 5 5 3 1 2 6 9 10 9 9 7 8 8 6
nan nan nan 7 6 10 9 11 13 11 13 nan nan nan 5 12 nan 11 nan 15 15 10 9 9 4 4 2 2 3 4 4 5 5 4 4 4 4 2 2 3 4 8 9 9 10 9 9 10 7
nan nan 8 nan 2 13 13 16 11 14 nan nan 9 15 14 13 nan 19 16 15 nan 9 8 9 5 2 2 3 3 3 4 4 3 2 2 3 2 1 2 3 5 6 7 10 8 6 6 7 7
nan 5 5 9 nan 8 13 15 20 10 nan 11 7 14 14 nan nan 11 nan nan nan 8 9 7 5 5 4 2 1 2 3 3 2 2 2 3 4 3 4 5 5 8 5 4 5 6 6 4 3
5 4 5 7 4 2 4 15 26 8 nan 7 10 13 nan nan nan nan nan nan 8 8 10 8 3 3 4 2 1 3 5 5 3 2 3 4 4 5 8 10 11 11 8 6 10 11 9 10 9
4 2 4 6 nan 6 nan nan 24 16 16 10 9 11 nan nan nan 16 nan nan nan 7 8 7 2 1 3 2 2 6 6 4 4 5 5 2 4 6 8 10 11 13 10 13 14 15 15 14 7
5 3 2 8 nan 3 6 17 19 12 14 11 6 13 nan nan 11 nan nan nan nan 8 10 5 2 3 3 2 4 6 5 5 6 7 4 3 4 4 6 9 11 12 11 14 13 13 12 10 8
4 2 2 6 5 10 15 nan nan 15 10 9 6 8 5 8 nan nan nan 9 nan 6 8 4 2 2 5 5 6 7 8 8 5 5 4 5 5 5 8 13 10 12 11 11 10 9 9 6 5
7 nan 2 8 9 15 9 13 8 20 nan nan 6 8 15 14 nan nan 9 8 5 4 5 3 3 7 8 9 12 11 9 9 6 5 7 16 8 8 11 5 8 10 10 9 9 8 4 1 3
5 11 11 nan nan nan 10 7 9 8 4 nan nan nan 18 16 nan nan 8 5 nan 5 4 3 1 8 11 13 14 13 12 13 10 7 9 9 6 7 4 5 7 8 10 8 9 9 12 19 4
4 10 10 nan nan 9 14 14 12 10 6 7 11 nan 16 14 13 nan nan 6 nan 4 2 5 5 11 13 12 16 16 16 14 11 9 10 4 8 9 8 7 9 10 18 14 14 15 19 12 11
11 11 13 nan 7 nan 14 20 12 9 19 12 14 16 19 11 nan nan nan nan nan nan 3 6 7 12 13 13 16 13 13 13 12 9 8 6 11 10 7 4 5 9 8 10 14 11 11 13 16
nan 15 10 1 13 6 8 14 14 8 16 18 18 15 14 12 nan nan nan nan nan nan 3 5 10 13 13 15 15 12 12 14 9 9 8 9 10 8 7 4 7 5 8 7 8 10 10 11 11
nan nan 11 10 10 11 11 11 10 14 17 17 16 14 12 nan nan nan nan nan nan nan 3 5 11 13 12 13 11 12 13 9 10 9 7 11 12 8 3 4 6 5 5 5 7 9 9 10 8
nan nan nan nan nan nan 12 6 3 19 15 14 12 10 nan nan nan nan nan nan nan nan 3 7 13 12 11 12 7 13 8 10 9 8 8 10 12 7 4 1 4 2 4 6 5 7 8 7 6
nan nan nan 4 nan nan 6 5 11 10 11 11 11 6 6 5 nan nan nan nan nan nan 5 10 15 11 8 9 10 13 10 11 10 7 6 7 7 8 6 7 1 3 5 6 5 5 5 5 nan
nan nan nan 9 1 8 1 11 13 7 10 12 8 6 4 6 nan nan nan nan nan 5 7 12 15 10 7 7 9 11 9 13 10 8 8 6 9 7 10 7 4 9 7 8 6 7 nan 6 nan
nan nan nan nan 13 5 5 8 12 8 11 11 7 2 4 5 nan nan nan nan nan 4 8 11 15 11 7 6 11 10 8 11 10 9 10 9 12 11 12 9 9 12 11 8 11 9 13 11 nan
nan nan nan nan 25 15 8 2 13 11 11 11 6 2 3 5 nan nan nan nan nan 3 6 8 10 10 10 9 9 9 9 9 10 10 9 12 13 12 13 17 15 17 15 12 13 11 11 9 10
nan nan nan nan nan 23 15 9 17 10 11 12 8 3 3 6 8 nan 5 3 3 4 5 7 9 8 11 11 13 12 11 8 11 8 7 12 13 16 17 15 14 15 12 13 12 15 10 8 9
nan nan nan nan nan nan 24 15 17 18 15 14 11 8 7 6 10 nan 2 1 3 3 5 7 7 8 9 10 11 10 10 12 10 7 7 10 13 15 18 17 15 14 16 12 13 14 12 8 8
nan nan nan nan nan nan 18 23 15 17 14 16 16 12 11 11 10 13 7 1 5 5 7 9 10 8 8 8 7 8 10 11 11 9 8 7 11 13 13 15 12 15 14 13 12 11 11 15 5
nan nan nan nan nan nan nan 32 25 18 22 19 15 14 12 13 13 16 9 3 5 12 10 10 11 11 8 7 11 9 11 7 8 9 6 11 7 11 12 13 11 9 10 13 8 7 10 5 10
nan nan nan nan nan nan nan nan nan 15 26 19 18 15 11 10 12 13 15 11 6 11 12 12 11 13 9 7 6 7 5 10 8 8 8 9 8 7 9 8 9 8 8 8 7 6 6 9 8
nan nan nan nan nan nan nan nan nan nan 24 21 22 17 14 10 10 11 19 13 8 7 9 12 12 11 9 6 8 6 6 7 7 7 8 9 9 9 4 7 6 6 8 8 5 5 5 6 6
nan nan nan nan nan nan nan nan nan nan nan nan 34 23 23 17 13 12 14 13 8 7 9 12 13 13 11 9 11 12 6 9 8 6 10 8 9 8 8 4 6 8 9 10 9 10 11 5 6
nan nan nan nan nan nan nan nan nan nan nan nan nan nan 29 22 14 12 11 15 14 8 11 12 17 15 13 9 15 14 10 9 7 9 8 10 10 11 8 6 5 6 8 8 8 10 7 8 9
nan nan nan nan nan nan nan nan nan nan nan nan nan nan 31 24 20 17 14 14 11 9 10 13 14 15 15 14 16 16 11 11 11 11 10 10 11 10 11 6 6 6 5 5 5 5 5 7 8
nan nan nan nan nan nan nan nan nan nan nan nan nan nan nan 28 22 19 12 9 8 9 11 10 13 16 15 15 17 17 13 11 11 9 9 10 10 9 8 6 4 1 1 3 3 3 3 5 7
nan nan nan nan nan nan nan nan nan nan nan nan nan nan nan nan 24 21 17 16 13 12 13 11 13 16 14 16 18 17 17 15 11 8 8 9 10 10 8 7 5 4 4 5 4 3 1 4 6
Wind_Direction
nan nan nan 236 195 155 178 199 152 199 231 218 nan nan 199 178 157 199 323 nan 329 326 327 352 351 353 358 31 43 62 81 89 77 69 73 58 51 38 344 284 257 262 255 246 251 249 229 254 263
nan nan nan 108 171 163 217 210 188 204 222 nan nan nan 172 196 nan 298 nan 344 337 334 342 328 352 331 337 42 53 93 100 89 81 78 59 39 28 3 340 299 299 252 265 253 252 242 241 239 246
nan nan 58 nan 57 168 203 214 174 195 nan nan 188 191 178 187 nan 320 313 340 nan 341 315 288 349 2 353 33 56 86 96 119 104 85 65 37 24 324 2 296 290 277 264 259 247 227 231 242 177
nan 30 355 23 nan 185 203 226 164 203 nan 196 231 200 199 nan nan 309 nan nan nan 322 297 313 347 347 335 326 76 131 137 146 145 120 95 66 53 46 36 18 357 334 304 249 199 181 166 139 115
355 46 4 2 22 264 230 194 151 171 nan 168 149 205 nan nan nan nan nan nan 323 325 300 328 17 316 315 280 205 164 169 168 138 77 61 87 63 57 45 33 23 25 34 103 125 129 137 136 123
335 352 29 333 nan 282 nan nan 159 173 167 174 179 206 nan nan nan 325 nan nan nan 306 320 303 292 280 294 266 177 170 193 171 136 129 123 91 60 54 46 39 32 41 66 101 108 124 125 128 150
93 12 290 190 nan 281 169 174 153 178 171 119 188 190 nan nan 322 nan nan nan nan 336 296 314 307 219 219 189 176 174 172 146 139 133 122 87 68 67 62 59 44 55 76 105 101 120 134 146 138
169 185 118 97 148 217 201 nan nan 177 156 181 167 192 218 293 nan nan nan 323 nan 342 300 325 318 36 108 107 156 153 139 125 121 104 102 74 63 40 42 42 62 67 95 103 96 117 116 132 97
159 nan 145 201 225 219 245 230 205 202 nan nan 193 187 285 299 nan nan 345 340 355 358 312 315 21 111 138 140 134 126 119 107 101 102 101 58 63 47 50 123 67 80 86 96 81 82 89 348 146
156 167 218 nan nan nan 228 239 210 189 184 nan nan nan 280 302 nan nan 360 360 nan 356 347 50 96 126 117 123 113 114 107 94 107 109 95 100 73 120 105 68 53 75 86 85 80 81 72 60 30
259 159 172 nan nan 226 209 192 210 191 206 254 270 nan 290 318 318 nan nan 4 nan 9 71 80 125 129 119 141 111 113 108 112 113 102 86 116 85 38 78 73 57 50 71 67 63 62 76 112 114
164 148 142 nan 205 nan 232 205 181 205 213 248 277 299 309 332 nan nan nan nan nan nan 48 72 125 132 123 127 115 115 107 101 95 94 90 90 87 72 84 103 85 89 96 85 87 97 118 99 112
nan 171 241 308 150 211 180 170 187 211 231 263 280 300 321 319 nan nan nan nan nan nan 67 80 138 136 140 125 121 125 119 95 101 98 103 102 94 103 86 93 92 115 97 95 92 93 98 92 94
nan nan 212 237 151 157 123 162 199 232 250 270 292 314 328 nan nan nan nan nan nan nan 65 110 139 136 136 135 128 135 129 116 108 99 97 93 100 94 100 101 90 102 119 112 109 122 104 103 91
nan nan nan nan nan nan 159 134 223 259 267 277 294 308 nan nan nan nan nan nan nan nan 113 129 138 135 136 133 131 130 131 118 108 107 97 94 98 92 108 4 149 142 163 118 115 91 101 91 88
nan nan nan 154 nan nan 149 250 269 276 269 278 288 294 322 13 nan nan nan nan nan nan 123 139 144 133 133 140 139 136 128 124 115 99 77 86 101 117 134 113 72 197 137 140 130 115 110 104 nan
nan nan nan 255 261 180 104 241 274 278 259 259 260 278 310 29 nan nan nan nan nan 127 140 143 153 152 116 137 130 129 135 119 112 99 93 97 105 95 84 77 132 100 131 141 125 118 nan 111 nan
nan nan nan nan 239 175 232 202 259 267 257 253 245 269 5 39 nan nan nan nan nan 142 148 147 164 168 138 131 134 127 132 113 108 100 101 93 99 98 85 88 96 98 107 125 128 122 128 128 nan
nan nan nan nan 218 211 197 218 248 253 254 250 248 217 15 29 nan nan nan nan nan 136 134 146 151 162 150 132 142 135 125 118 107 107 103 93 94 91 92 92 81 92 105 134 116 110 109 107 108
nan nan nan nan nan 201 201 208 236 240 239 247 243 213 350 353 355 nan 331 269 113 153 146 150 146 162 157 163 160 148 130 122 120 119 118 99 92 96 95 96 78 81 92 94 93 99 99 97 91
nan nan nan nan nan nan 190 208 198 227 226 248 256 263 300 339 344 nan 350 314 226 179 157 162 153 164 170 171 165 157 144 151 144 137 119 102 96 99 99 102 110 91 96 75 77 84 99 85 101
nan nan nan nan nan nan 220 202 234 215 230 251 263 273 290 316 340 330 331 205 196 207 197 180 176 171 184 165 170 149 161 161 147 136 134 128 102 98 100 105 101 103 112 113 97 102 110 116 84
nan nan nan nan nan nan nan 207 197 247 231 233 251 268 282 306 326 332 345 319 214 211 200 197 197 189 189 185 157 189 155 160 156 150 166 130 125 103 98 102 111 102 99 96 103 99 107 107 132
nan nan nan nan nan nan nan nan nan 211 234 232 247 245 253 288 307 323 328 314 260 237 215 206 210 203 192 198 166 179 165 141 162 170 174 143 135 116 105 101 107 105 106 82 90 90 87 107 117
nan nan nan nan nan nan nan nan nan nan 246 208 229 242 240 235 261 289 316 301 294 282 244 231 222 213 204 183 191 193 149 145 170 189 170 159 147 132 103 95 89 86 87 103 87 85 87 72 79
nan nan nan nan nan nan nan nan nan nan nan nan 205 221 221 222 240 291 305 304 295 282 261 229 238 226 222 199 188 205 180 176 171 174 173 172 154 139 136 111 90 73 73 80 82 79 81 54 56
nan nan nan nan nan nan nan nan nan nan nan nan nan nan 228 227 233 275 295 301 298 286 281 254 230 230 232 225 208 206 194 169 167 169 185 170 160 158 149 138 109 89 85 78 76 89 65 81 71
nan nan nan nan nan nan nan nan nan nan nan nan nan nan 210 225 236 244 267 280 286 291 287 260 235 233 227 225 216 212 194 183 181 193 178 171 162 162 159 152 127 107 81 61 53 76 48 63 64
nan nan nan nan nan nan nan nan nan nan nan nan nan nan nan 226 227 232 238 252 290 265 272 266 238 230 235 232 225 215 204 191 202 190 194 178 164 179 165 181 164 159 30 354 360 72 99 37 56
nan nan nan nan nan nan nan nan nan nan nan nan nan nan nan nan 225 214 226 232 249 283 273 274 246 229 232 233 237 236 223 205 208 207 213 205 176 180 183 202 227 269 296 307 318 349 31 59 53